CW7229 Weather Reports


Display with metric or nautical units.
time (UTC)temp
F
wind
direction
speed
MPH
gust
MPH
rain 1hr
in
rain 24hr
in
rain mn
in
humidity
%
barometer
mb
20260506133113 52 59 4.0 8.0 0.01 1.34 1.34 77 1004.6
20260506130113 52 82 6.0 8.0 0.03 1.34 1.34 78 1004.6
20260506123113 52 56 4.0 8.0 0.04 1.33 1.33 80 1003.6
20260506120113 51 360 4.0 7.0 0.05 1.32 1.32 81 1004.7
20260506113113 50 1 5.0 9.0 0.05 1.29 1.29 80 1004.7
20260506103113 50 45 4.0 6.0 0.02 1.24 1.24 78 1004.7
20260506093114 49 74 7.0 9.0 0.03 1.22 1.22 79 1003.7
20260506090114 49 75 7.0 10.0 0.05 1.20 1.20 77 1003.7
20260506083114 49 75 8.0 11.0 0.07 1.19 1.19 78 1003.7
20260506080114 49 19 3.0 8.0 0.08 1.16 1.15 81 1003.7
20260506073114 49 41 5.0 8.0 0.12 1.12 1.12 81 1003.7
20260506060133 49 11 4.0 6.0 0.17 0.92 0.91 81 1002.7
20260506050134 49 32 4.0 6.0 0.13 0.76 0.74 80 1003.7
20260506043114 49 43 6.0 9.0 0.15 0.73 0.69 80 1003.7
20260506033113 50 71 0.0 8.0 0.16 0.59 0.53 81 1003.7
20260506030113 51 31 3.0 5.0 0.15 0.50 0.45 82 1003.6
20260506023114 51 32 6.0 8.0 0.16 0.45 0.38 82 1003.6
20260506020114 52 61 6.0 9.0 0.14 0.36 0.29 82 1003.6
20260506013113 52 339 4.0 9.0 0.12 0.29 0.21 81 1003.6
20260506010113 52 60 7.0 10.0 0.11 0.23 0.15 81 1004.6
20260506003113 52 46 7.0 9.0 0.08 0.17 0.09 80 1004.6
20260506000113 52 71 5.0 11.0 0.04 0.12 0.04 79 1004.6
20260505233113 53 52 4.0 8.0 0.01 0.10 0.01 76 1004.6
20260505230113 53 22 4.0 8.0 0.00 0.09 0.00 73 1005.6
20260505223113 53 64 6.0 11.0 0.00 0.10 0.00 69 1005.6
20260505213113 54 318 4.0 8.0 0.00 0.12 0.12 63 1005.6
20260505210113 54 56 6.0 9.0 0.00 0.12 0.12 61 1005.6
20260505203112 54 24 6.0 10.0 0.00 0.14 0.12 62 1005.6
20260505200112 54 61 8.0 14.0 0.00 0.14 0.12 61 1005.6
20260505193112 54 68 7.0 10.0 0.00 0.21 0.12 59 1005.6
20260505190114 55 41 5.0 8.0 0.00 0.21 0.12 59 1005.6
20260505183114 56 24 8.0 11.0 0.00 0.31 0.12 56 1005.6
20260505180133 56 332 6.0 8.0 0.00 0.31 0.12 57 1005.6
20260505163114 57 357 5.0 11.0 0.00 0.51 0.12 52 1005.5
20260505160114 58 30 5.0 8.0 0.00 0.51 0.12 52 1006.5
20260505153114 59 82 5.0 10.0 0.00 0.51 0.12 51 1006.5
20260505150113 60 335 4.0 8.0 0.00 0.51 0.12 49 1006.5
20260505140113 61 35 4.0 8.0 0.00 0.51 0.12 45 1006.5